Regional Weather Roundup
Issued by NWS

Home | Current Version | Previous Version | Text Only | Print | Product List | Glossary On
Versions: 1 2 3 4 5 6 7 8 9 10 11 12 13 14 15 16 17 18 19 20 21 22 23 24 25 26 27
000
ASPQ40 PGUM 172112
RWRPQ
WEATHER ROUNDUP FOR THE MARIANAS AND MICRONESIA
NATIONAL WEATHER SERVICE TIYAN GU
700 AM CHST SUN FEB 18 2018

GUZ001>004-172200-
MARIANA ISLANDS-

CITY           SKY/WX    TMP DP  RH WIND       PRES   REMARKS
GUAM AIRPORT   CLOUDY    75  73  94 NE17      29.93R
ANDERSEN AFB   MOCLDY    75  72  88 NE13G23   29.93R
ROTA AIRPORT   MOCLDY    77  72  83 NE10      29.93R
TINIAN AP      PTCLDY    77  73  88 NE12      29.91S
SAIPAN AP      MOCLDY    79  73  83 NE12      29.92S

$$

PMZ161-172200-
REPUBLIC OF PALAU-

CITY           SKY/WX    TMP DP  RH WIND       PRES   REMARKS
KOROR AP       CLOUDY    79  75  89 NE9       29.81R
KOROR WSO      CLOUDY    81  75  83 N7        29.82R

$$

PMZ171>174-172200-
FEDERATED STATES OF MICRONESIA-

CITY           SKY/WX    TMP DP  RH WIND       PRES   REMARKS
YAP AIRPORT    MOCLDY    77  75  94 VRB6      29.85R
CHUUK AP       CLOUDY    82  73  74 N9        29.82R
POHNPEI AP     NOT AVBL
POHNPEI WSO    CLOUDY    81  70  69 NE6       29.85R
KOSRAE AP      NOT AVBL

$$

PMZ181-172200-
REPUBLIC OF THE MARSHALL ISLANDS-

CITY           SKY/WX    TMP DP  RH WIND       PRES   REMARKS
KWAJALEIN AP   DRIZZLE   77  75  94 E22G29    29.84R
MAJURO AP      CLOUDY    81  77  89 MISG      29.81R
MAJURO WSO     PTSUNNY   82  77  83 SE15      29.81R HX  91

$$





USA.gov is the U.S. government's official web portal to all federal, state and local government web resources and services.